Weather in Shirinskiy

Russia / Tula Oblast     54°03′51″N   38°21′27″E
temp.,
°C
wind,
m/s
gust,
m/s
humid.,
%
clouds,
%
prec.,
mm/h
press.,
hPa
HPBL,
m
17 may, mon
mon1700:00+15ene338061 0.0 101329
03:00+14ene478214 0.0 1014116
06:00+14ene499455 1.6 1013203
09:00+20e698067 1.6 1012415
12:00+24se79635 0.0 1012833
15:00+26se610595 0.0 10111324
18:00+23ese61266100 0.0 1010532
21:00+19ese61678100 0.0 1010384
18 may, tue
tue1800:00+17ese516761 0.0 1010397
03:00+15se4137828 0.0 1010277
06:00+15ese5127734 0.0 1009245
09:00+19se61163100 0.0 1009424
12:00+23se7115348 0.0 1009690
15:00+25ese6115520 0.0 10081203
18:00+22ese7146679 0.0 1007707
21:00+18ese41184100 0.0 1008238
19 may, wed
wed1900:00+17ese3887100 0.0 1007163
03:00+16se4884100 0.0 1008200
06:00+15ese488489 0.0 1007173
09:00+20sse477399 0.0 1007510
12:00+22sse576199 0.0 10081414
15:00+21sse576998 1.1 1008957
18:00+20s497452 1.1 10071033
21:00+16se368696 1.8 1008121
20 may, thu
thu2000:00+14se3793100 0.4 1007187
03:00+13se3696100 0.4 1007126
06:00+13s3795100 0.5 1007273
09:00+13s2496100 3.7 1006225
12:00+17s687419 1.9 10071134
15:00+17ssw8107260 2.8 10081300
18:00+16ssw7117913 0.6 10091085
21:00+13sw611873 0.7 1011601
21 may, fri
fri2100:00+11sw6138868 0.0 1013539
03:00+10wsw5118987 0.0 1015329
06:00+11sw36909 0.0 1016196
09:00+13ssw4889100 0.0 1017391
12:00+16ssw467891 0.0 1018682
15:00+19ssw566782 0.1 10171337
18:00+17ssw377991 0.4 1017274
21:00+15sse3387100 0.9 101744